Time,TemperatureF,DewpointF,PressureIn,WindDirection,WindDirectionDegrees,WindSpeedMPH,WindSpeedGustMPH,Humidity,HourlyPrecipIn,Conditions,Clouds,dailyrainin,SoftwareType,DateUTC
2013-01-14 00:00:00,11.0,-99.9,-100.00,SW,228,2.0,6.0,-999,-99.99,,,-99.99,,2013-01-14 06:00:00,
2013-01-14 00:33:00,11.0,-99.9,-100.00,SW,228,2.0,6.0,-999,-99.99,,,-99.99,,2013-01-14 06:33:00,
2013-01-14 00:43:00,11.0,-99.9,-100.00,SW,228,2.0,6.0,-999,-99.99,,,-99.99,,2013-01-14 06:43:00,
2013-01-14 00:53:00,11.0,-99.9,-100.00,SW,228,2.0,6.0,-999,-99.99,,,-99.99,,2013-01-14 06:53:00,
2013-01-14 01:00:00,10.0,-99.9,-100.00,SW,234,3.0,4.0,-999,-99.99,,,-99.99,,2013-01-14 07:00:00,
2013-01-14 01:33:00,10.0,-99.9,-100.00,SW,234,3.0,4.0,-999,-99.99,,,-99.99,,2013-01-14 07:33:00,
2013-01-14 01:43:00,10.0,-99.9,-100.00,SW,234,3.0,4.0,-999,-99.99,,,-99.99,,2013-01-14 07:43:00,
2013-01-14 01:53:00,10.0,-99.9,-100.00,SW,234,3.0,4.0,-999,-99.99,,,-99.99,,2013-01-14 07:53:00,
2013-01-14 02:00:00,10.0,-99.9,-100.00,South,177,1.0,3.0,-999,-99.99,,,-99.99,,2013-01-14 08:00:00,
2013-01-14 02:33:00,10.0,-99.9,-100.00,South,177,1.0,3.0,-999,-99.99,,,-99.99,,2013-01-14 08:33:00,
2013-01-14 02:43:00,10.0,-99.9,-100.00,South,177,1.0,3.0,-999,-99.99,,,-99.99,,2013-01-14 08:43:00,
2013-01-14 02:53:00,10.0,-99.9,-100.00,South,177,1.0,3.0,-999,-99.99,,,-99.99,,2013-01-14 08:53:00,
2013-01-14 03:00:00,10.0,-99.9,-100.00,SW,232,0.0,4.0,-999,-99.99,,,-99.99,,2013-01-14 09:00:00,
2013-01-14 03:34:00,10.0,-99.9,-100.00,SW,232,0.0,4.0,-999,-99.99,,,-99.99,,2013-01-14 09:34:00,
2013-01-14 03:43:00,10.0,-99.9,-100.00,SW,232,0.0,4.0,-999,-99.99,,,-99.99,,2013-01-14 09:43:00,
2013-01-14 03:53:00,10.0,-99.9,-100.00,SW,232,0.0,4.0,-999,-99.99,,,-99.99,,2013-01-14 09:53:00,
2013-01-14 04:00:00,10.0,-99.9,-100.00,SSW,199,0.0,1.0,-999,-99.99,,,-99.99,,2013-01-14 10:00:00,
2013-01-14 04:53:00,10.0,-99.9,-100.00,SSW,199,0.0,1.0,-999,-99.99,,,-99.99,,2013-01-14 10:53:00,
2013-01-14 05:00:00,9.0,-99.9,-100.00,ESE,109,2.0,4.0,-999,-99.99,,,-99.99,,2013-01-14 11:00:00,
2013-01-14 05:33:00,9.0,-99.9,-100.00,ESE,109,2.0,4.0,-999,-99.99,,,-99.99,,2013-01-14 11:33:00,
2013-01-14 05:43:00,9.0,-99.9,-100.00,ESE,109,2.0,4.0,-999,-99.99,,,-99.99,,2013-01-14 11:43:00,
2013-01-14 05:53:00,9.0,-99.9,-100.00,ESE,109,2.0,4.0,-999,-99.99,,,-99.99,,2013-01-14 11:53:00,
2013-01-14 06:00:00,8.0,-99.9,-100.00,NE,42,2.0,2.0,-999,-99.99,,,-99.99,,2013-01-14 12:00:00,
2013-01-14 06:33:00,8.0,-99.9,-100.00,NE,42,2.0,2.0,-999,-99.99,,,-99.99,,2013-01-14 12:33:00,
2013-01-14 06:43:00,8.0,-99.9,-100.00,NE,42,2.0,2.0,-999,-99.99,,,-99.99,,2013-01-14 12:43:00,
2013-01-14 06:53:00,8.0,-99.9,-100.00,NE,42,2.0,2.0,-999,-99.99,,,-99.99,,2013-01-14 12:53:00,
2013-01-14 07:00:00,7.0,-99.9,-100.00,East,90,0.0,0.0,-999,-99.99,,,-99.99,,2013-01-14 13:00:00,
2013-01-14 07:34:00,7.0,-99.9,-100.00,East,90,0.0,0.0,-999,-99.99,,,-99.99,,2013-01-14 13:34:00,
2013-01-14 07:43:00,7.0,-99.9,-100.00,East,90,0.0,0.0,-999,-99.99,,,-99.99,,2013-01-14 13:43:00,
2013-01-14 07:53:00,7.0,-99.9,-100.00,East,90,0.0,0.0,-999,-99.99,,,-99.99,,2013-01-14 13:53:00,
2013-01-14 08:00:00,7.0,-99.9,-100.00,NNE,18,0.0,1.0,-999,-99.99,,,-99.99,,2013-01-14 14:00:00,
2013-01-14 08:33:00,7.0,-99.9,-100.00,NNE,18,0.0,1.0,-999,-99.99,,,-99.99,,2013-01-14 14:33:00,
2013-01-14 08:43:00,7.0,-99.9,-100.00,NNE,18,0.0,1.0,-999,-99.99,,,-99.99,,2013-01-14 14:43:00,
2013-01-14 08:53:00,7.0,-99.9,-100.00,NNE,18,0.0,1.0,-999,-99.99,,,-99.99,,2013-01-14 14:53:00,
2013-01-14 09:00:00,14.0,-99.9,-100.00,SE,132,0.0,1.0,-999,-99.99,,,-99.99,,2013-01-14 15:00:00,
2013-01-14 09:54:00,14.0,-99.9,-100.00,SE,132,0.0,1.0,-999,-99.99,,,-99.99,,2013-01-14 15:54:00,
2013-01-14 10:00:00,23.0,-99.9,-100.00,SSW,193,3.0,3.0,-999,-99.99,,,-99.99,,2013-01-14 16:00:00,
2013-01-14 10:33:00,23.0,-99.9,-100.00,SSW,193,3.0,3.0,-999,-99.99,,,-99.99,,2013-01-14 16:33:00,
2013-01-14 10:43:00,23.0,-99.9,-100.00,SSW,193,3.0,3.0,-999,-99.99,,,-99.99,,2013-01-14 16:43:00,
2013-01-14 10:54:00,23.0,-99.9,-100.00,SSW,193,3.0,3.0,-999,-99.99,,,-99.99,,2013-01-14 16:54:00,
2013-01-14 11:00:00,27.0,-99.9,-100.00,South,189,11.0,11.0,-999,-99.99,,,-99.99,,2013-01-14 17:00:00,
2013-01-14 11:34:00,27.0,-99.9,-100.00,South,189,11.0,11.0,-999,-99.99,,,-99.99,,2013-01-14 17:34:00,
2013-01-14 11:44:00,27.0,-99.9,-100.00,South,189,11.0,11.0,-999,-99.99,,,-99.99,,2013-01-14 17:44:00,
2013-01-14 11:54:00,27.0,-99.9,-100.00,South,189,11.0,11.0,-999,-99.99,,,-99.99,,2013-01-14 17:54:00,
2013-01-14 12:00:00,29.0,-99.9,-100.00,SSW,203,6.0,10.0,-999,-99.99,,,-99.99,,2013-01-14 18:00:00,
2013-01-14 12:34:00,29.0,-99.9,-100.00,SSW,203,6.0,10.0,-999,-99.99,,,-99.99,,2013-01-14 18:34:00,
2013-01-14 12:43:00,29.0,-99.9,-100.00,SSW,203,6.0,10.0,-999,-99.99,,,-99.99,,2013-01-14 18:43:00,
2013-01-14 12:53:00,29.0,-99.9,-100.00,SSW,203,6.0,10.0,-999,-99.99,,,-99.99,,2013-01-14 18:53:00,
2013-01-14 13:00:00,29.0,-99.9,-100.00,South,181,0.0,7.0,-999,-99.99,,,-99.99,,2013-01-14 19:00:00,
2013-01-14 13:33:00,29.0,-99.9,-100.00,South,181,0.0,7.0,-999,-99.99,,,-99.99,,2013-01-14 19:33:00,
2013-01-14 13:43:00,29.0,-99.9,-100.00,South,181,0.0,7.0,-999,-99.99,,,-99.99,,2013-01-14 19:43:00,
2013-01-14 13:53:00,29.0,-99.9,-100.00,South,181,0.0,7.0,-999,-99.99,,,-99.99,,2013-01-14 19:53:00,
2013-01-14 14:00:00,29.0,-99.9,-100.00,SSE,165,3.0,10.0,-999,-99.99,,,-99.99,,2013-01-14 20:00:00,
2013-01-14 14:53:00,29.0,-99.9,-100.00,SSE,165,3.0,10.0,-999,-99.99,,,-99.99,,2013-01-14 20:53:00,
2013-01-14 15:00:00,29.0,-99.9,-100.00,South,185,3.0,7.0,-999,-99.99,,,-99.99,,2013-01-14 21:00:00,
2013-01-14 15:33:00,29.0,-99.9,-100.00,South,185,3.0,7.0,-999,-99.99,,,-99.99,,2013-01-14 21:33:00,
2013-01-14 15:43:00,29.0,-99.9,-100.00,South,185,3.0,7.0,-999,-99.99,,,-99.99,,2013-01-14 21:43:00,
2013-01-14 15:54:00,29.0,-99.9,-100.00,South,185,3.0,7.0,-999,-99.99,,,-99.99,,2013-01-14 21:54:00,
2013-01-14 16:00:00,29.0,-99.9,-100.00,West,263,0.0,0.0,-999,-99.99,,,-99.99,,2013-01-14 22:00:00,
2013-01-14 16:33:00,29.0,-99.9,-100.00,West,263,0.0,0.0,-999,-99.99,,,-99.99,,2013-01-14 22:33:00,
2013-01-14 16:43:00,29.0,-99.9,-100.00,West,263,0.0,0.0,-999,-99.99,,,-99.99,,2013-01-14 22:43:00,
2013-01-14 16:53:00,29.0,-99.9,-100.00,West,263,0.0,0.0,-999,-99.99,,,-99.99,,2013-01-14 22:53:00,
2013-01-14 17:00:00,27.0,-99.9,-100.00,West,267,1.0,2.0,-999,-99.99,,,-99.99,,2013-01-14 23:00:00,
2013-01-14 17:33:00,27.0,-99.9,-100.00,West,267,1.0,2.0,-999,-99.99,,,-99.99,,2013-01-14 23:33:00,
2013-01-14 17:43:00,27.0,-99.9,-100.00,West,267,1.0,2.0,-999,-99.99,,,-99.99,,2013-01-14 23:43:00,
2013-01-14 17:53:00,27.0,-99.9,-100.00,West,267,1.0,2.0,-999,-99.99,,,-99.99,,2013-01-14 23:53:00,
2013-01-14 18:00:00,25.0,-99.9,-100.00,SSW,205,3.0,3.0,-999,-99.99,,,-99.99,,2013-01-15 00:00:00,
2013-01-14 18:33:00,26.0,-99.9,-100.00,South,187,0.0,0.0,-999,-99.99,,,-99.99,,2013-01-15 00:33:00,
2013-01-14 18:43:00,26.0,-99.9,-100.00,South,187,0.0,0.0,-999,-99.99,,,-99.99,,2013-01-15 00:43:00,
2013-01-14 18:53:00,25.0,-99.9,-100.00,SSW,205,3.0,3.0,-999,-99.99,,,-99.99,,2013-01-15 00:53:00,
2013-01-14 20:00:00,21.0,-99.9,-100.00,ESE,109,0.0,0.0,-999,-99.99,,,-99.99,,2013-01-15 02:00:00,
2013-01-14 20:23:00,21.0,-99.9,-100.00,East,84,1.0,1.0,-999,-99.99,,,-99.99,,2013-01-15 02:23:00,
2013-01-14 20:33:00,21.0,-99.9,-100.00,ESE,109,0.0,0.0,-999,-99.99,,,-99.99,,2013-01-15 02:33:00,
2013-01-14 20:43:00,21.0,-99.9,-100.00,ESE,109,0.0,0.0,-999,-99.99,,,-99.99,,2013-01-15 02:43:00,
2013-01-14 20:53:00,21.0,-99.9,-100.00,ESE,109,0.0,0.0,-999,-99.99,,,-99.99,,2013-01-15 02:53:00,
2013-01-14 21:00:00,19.0,-99.9,-100.00,ENE,74,0.0,1.0,-999,-99.99,,,-99.99,,2013-01-15 03:00:00,
2013-01-14 21:23:00,21.0,-99.9,-100.00,NNW,348,1.0,1.0,-999,-99.99,,,-99.99,,2013-01-15 03:23:00,
2013-01-14 21:33:00,19.0,-99.9,-100.00,ENE,74,0.0,1.0,-999,-99.99,,,-99.99,,2013-01-15 03:33:00,
2013-01-14 21:43:00,19.0,-99.9,-100.00,ENE,74,0.0,1.0,-999,-99.99,,,-99.99,,2013-01-15 03:43:00,
2013-01-14 21:53:00,19.0,-99.9,-100.00,ENE,74,0.0,1.0,-999,-99.99,,,-99.99,,2013-01-15 03:53:00,
2013-01-14 22:00:00,18.0,-99.9,-100.00,SSW,205,10.0,10.0,-999,-99.99,,,-99.99,,2013-01-15 04:00:00,
2013-01-14 22:53:00,18.0,-99.9,-100.00,SSW,205,10.0,10.0,-999,-99.99,,,-99.99,,2013-01-15 04:53:00,
2013-01-14 23:00:00,17.0,-99.9,-100.00,ENE,58,0.0,3.0,-999,-99.99,,,-99.99,,2013-01-15 05:00:00,
2013-01-14 23:33:00,17.0,-99.9,-100.00,ENE,58,0.0,3.0,-999,-99.99,,,-99.99,,2013-01-15 05:33:00,
2013-01-14 23:43:00,17.0,-99.9,-100.00,ENE,58,0.0,3.0,-999,-99.99,,,-99.99,,2013-01-15 05:43:00,
2013-01-14 23:53:00,17.0,-99.9,-100.00,ENE,58,0.0,3.0,-999,-99.99,,,-99.99,,2013-01-15 05:53:00,